NOAA 16 DEB, 41209

Orbit data source: Space-Track

NOAA 16 DEB, 41209 is space debris in SSO originally from a launch on Thu, 21 Sep 2000 UTC launched from the Air Force Western Test Range (AFWTR). Debris objects in space refer to the collection of defunct objects orbiting the Earth. Examples of debris include non-operational satellites, rocket bodies, and fragments generated from explosions, collisions, or faulty payload assembly.

Loading next visibility...
Identifier
41209, 2000-055DN
Orbit
SSO
Country
Flag of USUS
Related business
Manufacturer
Unknown
Mission
Spacecraft
Bus & Motor
Unknown
Mass
Unknown
Launch date (UTC)
2000-09-21 (26 years ago)
Launch vehicle
Unknown
Launch site
Air Force Western Test Range (AFWTR)
Object type
Payload
Rocket body
Debris
Shape & HBR
Unknown shape, 0.1 m
Radar Cross Section
Medium (>0.1 m² and <1 m²)

Expand to show TLE details & history
Last TLE update: 21 hours ago

TLE from 21 hours ago
0 NOAA 16 DEB
1 41209U 00055DN  26206.15954874  .00014744  00000-0  20002-2 0  9991
2 41209  98.8934 104.1742 0032060 133.7379 226.6492 14.78642172556652
Epoch: 2026-07-25T03:49Z
TLE epoch observation values (Epoch: 2026-07-25T03:49:45.011Z)
Latitude
0.00003°
Longitude
103.86082°
Altitude
652.074 km
Speed
7.523 km/s
True Right ascension
06h 56m 41s
True Declination
0° 00' 00"
Sunlit
Object was in daylight at epoch
Visualization orbit readout
Latitude
Unknown
Longitude
Unknown
Altitude
Unknown
Speed
Unknown
Apparent Right ascension
Unknown
Apparent Declination
Unknown
Sunlit
N/A
Visualization observer readout
Local Sidereal Time
14:28:29
Azimuth
Unknown
Elevation
Unknown
Doppler factor
Unknown
Orbital elements
Apogee altitude
653.174 km
Perigee altitude
608.233 km
Semi-major axis
7,008.84 km
Eccentricity
0.00321
Inclination
98.8934°
RAAN
104.1742°
Arg. of periapsis
133.7379°
True anomaly
226.38279°
Mean anomaly
226.6492°
Eccentric anomaly
226.51592°
Mean motion
3.69891 °/min
Orbital period
97.33 mins
BSTAR
0.0020002
Loading maneuver chart data...
Computing Atmospheric mass density...

Documentation

Showing up to 5 results
|